Time,TemperatureF,DewpointF,PressureIn,WindDirection,WindDirectionDegrees,WindSpeedMPH,WindSpeedGustMPH,Humidity,HourlyPrecipIn,Conditions,Clouds,dailyrainin,SoftwareType,DateUTC
2013-05-25 00:00:00,32.1,30.8,30.30,SSW,199,0.0,0.0,95,0.00,,,0.01,Wunderground v.1.15,2013-05-25 04:00:00,
2013-05-25 00:02:00,32.1,30.8,30.30,SSW,198,0.0,0.0,95,0.00,,,0.01,Wunderground v.1.15,2013-05-25 04:02:00,
2013-05-25 00:04:00,32.1,30.8,30.31,SSW,198,0.0,0.0,95,0.00,,,0.01,Wunderground v.1.15,2013-05-25 04:04:00,
2013-05-25 00:05:00,32.1,30.8,30.31,SSW,198,0.0,0.0,95,0.00,,,0.01,Wunderground v.1.15,2013-05-25 04:05:00,
2013-05-25 00:07:00,32.1,30.8,30.31,SSW,199,0.0,0.0,95,0.00,,,0.01,Wunderground v.1.15,2013-05-25 04:07:00,
2013-05-25 00:13:00,31.8,30.5,30.31,SSW,198,0.0,0.0,95,0.00,,,0.01,Wunderground v.1.15,2013-05-25 04:13:00,
2013-05-25 00:20:00,31.7,30.4,30.31,SSW,198,0.0,0.0,95,0.00,,,0.01,Wunderground v.1.15,2013-05-25 04:20:00,
2013-05-25 00:25:00,31.6,30.3,30.31,SSW,199,0.0,0.0,95,0.00,,,0.01,Wunderground v.1.15,2013-05-25 04:25:00,
2013-05-25 00:31:00,31.5,30.2,30.32,SSW,198,0.0,0.0,95,0.00,,,0.01,Wunderground v.1.15,2013-05-25 04:31:00,
2013-05-25 00:37:00,31.2,29.9,30.31,SSW,198,0.0,0.0,95,0.00,,,0.01,Wunderground v.1.15,2013-05-25 04:37:00,
2013-05-25 00:43:00,31.3,30.0,30.31,SSW,199,0.0,0.0,95,0.00,,,0.01,Wunderground v.1.15,2013-05-25 04:43:00,
2013-05-25 00:50:00,31.5,30.2,30.31,SSW,198,0.0,0.0,95,0.00,,,0.01,Wunderground v.1.15,2013-05-25 04:50:00,
2013-05-25 00:55:00,31.5,30.2,30.31,SSW,198,0.0,0.0,95,0.00,,,0.01,Wunderground v.1.15,2013-05-25 04:55:00,
2013-05-25 01:00:00,31.3,30.0,30.31,SSW,199,0.0,0.0,95,0.00,,,0.01,Wunderground v.1.15,2013-05-25 05:00:00,
2013-05-25 01:06:00,31.0,29.7,30.31,SSW,198,0.0,0.0,95,0.00,,,0.01,Wunderground v.1.15,2013-05-25 05:06:00,
2013-05-25 01:11:00,30.6,29.3,30.31,SSW,198,0.0,0.0,95,0.00,,,0.01,Wunderground v.1.15,2013-05-25 05:11:00,
2013-05-25 01:17:00,30.8,29.5,30.31,SSW,199,0.0,0.0,95,0.00,,,0.01,Wunderground v.1.15,2013-05-25 05:17:00,
2013-05-25 01:22:00,30.8,29.5,30.31,SSW,198,0.0,0.0,95,0.00,,,0.01,Wunderground v.1.15,2013-05-25 05:22:00,
2013-05-25 01:30:00,30.6,29.3,30.31,SSW,198,0.0,0.0,95,0.00,,,0.01,Wunderground v.1.15,2013-05-25 05:30:00,
2013-05-25 01:35:00,30.3,29.0,30.31,SSW,198,0.0,0.0,95,0.00,,,0.01,Wunderground v.1.15,2013-05-25 05:35:00,
2013-05-25 01:40:00,30.2,29.2,30.31,SSW,199,0.0,0.0,96,0.00,,,0.01,Wunderground v.1.15,2013-05-25 05:40:00,
2013-05-25 01:45:00,30.4,29.4,30.31,SSW,199,0.0,0.0,96,0.00,,,0.01,Wunderground v.1.15,2013-05-25 05:45:00,
2013-05-25 01:51:00,30.8,29.8,30.31,SSW,199,0.0,0.0,96,0.00,,,0.01,Wunderground v.1.15,2013-05-25 05:51:00,
2013-05-25 01:57:00,30.5,29.5,30.31,SSW,198,0.0,0.0,96,0.00,,,0.00,Wunderground v.1.15,2013-05-25 05:57:00,
2013-05-25 02:04:00,30.5,29.5,30.31,SSW,198,0.0,0.0,96,0.00,,,0.00,Wunderground v.1.15,2013-05-25 06:04:00,
2013-05-25 02:10:00,30.4,29.4,30.31,SSW,198,0.0,0.0,96,0.00,,,0.00,Wunderground v.1.15,2013-05-25 06:10:00,
2013-05-25 02:15:00,30.2,29.2,30.31,SSW,198,0.0,0.0,96,0.00,,,0.00,Wunderground v.1.15,2013-05-25 06:15:00,
2013-05-25 02:22:00,30.0,29.0,30.31,SSW,198,0.0,0.0,96,0.00,,,0.00,Wunderground v.1.15,2013-05-25 06:22:00,
2013-05-25 02:27:00,30.2,29.2,30.31,SSW,198,0.0,0.0,96,0.00,,,0.00,Wunderground v.1.15,2013-05-25 06:27:00,
2013-05-25 02:33:00,30.1,29.1,30.32,SSW,198,0.0,0.0,96,0.00,,,0.00,Wunderground v.1.15,2013-05-25 06:33:00,
2013-05-25 02:40:00,30.2,29.2,30.32,SSW,198,0.0,0.0,96,0.00,,,0.00,Wunderground v.1.15,2013-05-25 06:40:00,
2013-05-25 02:46:00,30.0,29.0,30.32,SSW,198,0.0,0.0,96,0.00,,,0.00,Wunderground v.1.15,2013-05-25 06:46:00,
2013-05-25 02:51:00,30.1,29.1,30.31,SSW,198,0.0,0.0,96,0.00,,,0.00,Wunderground v.1.15,2013-05-25 06:51:00,
2013-05-25 02:56:00,30.4,29.4,30.31,SSW,198,0.0,0.0,96,0.00,,,0.00,Wunderground v.1.15,2013-05-25 06:56:00,
2013-05-25 03:03:00,30.4,29.4,30.31,SSW,199,0.0,0.0,96,0.00,,,0.00,Wunderground v.1.15,2013-05-25 07:03:00,
2013-05-25 03:08:00,30.4,29.4,30.31,SSW,198,0.0,0.0,96,0.00,,,0.00,Wunderground v.1.15,2013-05-25 07:08:00,
2013-05-25 03:14:00,30.1,29.1,30.31,SSW,198,0.0,0.0,96,0.00,,,0.00,Wunderground v.1.15,2013-05-25 07:14:00,
2013-05-25 03:20:00,29.7,28.7,30.31,SSW,198,0.0,0.0,96,0.00,,,0.00,Wunderground v.1.15,2013-05-25 07:20:00,
2013-05-25 03:26:00,29.5,28.5,30.31,SSW,198,0.0,0.0,96,0.00,,,0.00,Wunderground v.1.15,2013-05-25 07:26:00,
2013-05-25 03:31:00,29.3,28.3,30.31,SSW,199,0.0,0.0,96,0.00,,,0.00,Wunderground v.1.15,2013-05-25 07:31:00,
2013-05-25 03:37:00,29.4,28.4,30.31,SSW,198,0.0,0.0,96,0.00,,,0.00,Wunderground v.1.15,2013-05-25 07:37:00,
2013-05-25 03:42:00,29.4,28.4,30.31,SSW,198,0.0,0.0,96,0.00,,,0.00,Wunderground v.1.15,2013-05-25 07:42:00,
2013-05-25 03:48:00,29.3,28.3,30.31,SSW,198,0.0,0.0,96,0.00,,,0.00,Wunderground v.1.15,2013-05-25 07:48:00,
2013-05-25 03:53:00,29.4,28.4,30.31,SSW,198,0.0,0.0,96,0.00,,,0.00,Wunderground v.1.15,2013-05-25 07:53:00,
2013-05-25 03:59:00,29.6,28.6,30.31,SSW,198,0.0,0.0,96,0.00,,,0.00,Wunderground v.1.15,2013-05-25 07:59:00,
2013-05-25 04:04:00,29.8,28.8,30.31,SSW,198,0.0,0.0,96,0.00,,,0.00,Wunderground v.1.15,2013-05-25 08:04:00,
2013-05-25 04:10:00,30.2,29.5,30.31,SSW,198,0.0,0.0,97,0.00,,,0.00,Wunderground v.1.15,2013-05-25 08:10:00,
2013-05-25 04:18:00,30.3,29.6,30.32,SSW,199,0.0,0.0,97,0.00,,,0.00,Wunderground v.1.15,2013-05-25 08:18:00,
2013-05-25 04:23:00,30.4,29.7,30.32,SSW,198,0.0,0.0,97,0.00,,,0.00,Wunderground v.1.15,2013-05-25 08:23:00,
2013-05-25 04:28:00,30.4,29.7,30.32,SSW,198,0.0,0.0,97,0.00,,,0.00,Wunderground v.1.15,2013-05-25 08:28:00,
2013-05-25 04:33:00,30.4,29.7,30.32,SSW,198,0.0,0.0,97,0.00,,,0.00,Wunderground v.1.15,2013-05-25 08:33:00,
2013-05-25 04:39:00,30.5,29.8,30.33,SSW,198,0.0,0.0,97,0.00,,,0.00,Wunderground v.1.15,2013-05-25 08:39:00,
2013-05-25 04:45:00,30.4,29.7,30.33,SSW,198,0.0,0.0,97,0.00,,,0.00,Wunderground v.1.15,2013-05-25 08:45:00,
2013-05-25 04:50:00,30.2,29.5,30.33,SSW,198,0.0,0.0,97,0.00,,,0.00,Wunderground v.1.15,2013-05-25 08:50:00,
2013-05-25 04:55:00,30.1,29.4,30.33,SSW,198,0.0,0.0,97,0.00,,,0.00,Wunderground v.1.15,2013-05-25 08:55:00,
2013-05-25 05:01:00,29.9,29.2,30.33,SSW,198,0.0,0.0,97,0.00,,,0.00,Wunderground v.1.15,2013-05-25 09:01:00,
2013-05-25 05:06:00,29.8,29.1,30.33,SSW,199,0.0,0.0,97,0.00,,,0.00,Wunderground v.1.15,2013-05-25 09:06:00,
2013-05-25 05:12:00,29.8,29.1,30.33,SSW,198,0.0,0.0,97,0.00,,,0.00,Wunderground v.1.15,2013-05-25 09:12:00,
2013-05-25 05:17:00,29.7,29.0,30.33,SSW,198,0.0,0.0,97,0.00,,,0.00,Wunderground v.1.15,2013-05-25 09:17:00,
2013-05-25 05:23:00,29.5,28.8,30.33,SSW,198,0.0,0.0,97,0.00,,,0.00,Wunderground v.1.15,2013-05-25 09:23:00,
2013-05-25 05:28:00,29.2,28.5,30.33,SSW,199,0.0,0.0,97,0.00,,,0.00,Wunderground v.1.15,2013-05-25 09:28:00,
2013-05-25 05:34:00,29.2,28.5,30.33,SSW,198,0.0,0.0,97,0.00,,,0.00,Wunderground v.1.15,2013-05-25 09:34:00,
2013-05-25 05:40:00,29.0,28.3,30.33,SSW,198,0.0,0.0,97,0.00,,,0.00,Wunderground v.1.15,2013-05-25 09:40:00,
2013-05-25 05:45:00,29.0,28.3,30.33,SSW,198,0.0,0.0,97,0.00,,,0.00,Wunderground v.1.15,2013-05-25 09:45:00,
2013-05-25 05:50:00,29.2,28.5,30.33,SSW,198,0.0,0.0,97,0.00,,,0.00,Wunderground v.1.15,2013-05-25 09:50:00,
2013-05-25 05:55:00,29.1,28.4,30.34,SSW,198,0.0,0.0,97,0.00,,,0.00,Wunderground v.1.15,2013-05-25 09:55:00,
2013-05-25 06:02:00,29.0,28.3,30.34,SSW,198,0.0,0.0,97,0.00,,,0.00,Wunderground v.1.15,2013-05-25 10:02:00,
2013-05-25 06:07:00,28.9,28.2,30.34,SSW,198,0.0,0.0,97,0.00,,,0.00,Wunderground v.1.15,2013-05-25 10:07:00,
2013-05-25 06:12:00,28.9,28.2,30.34,SSW,198,0.0,0.0,97,0.00,,,0.00,Wunderground v.1.15,2013-05-25 10:12:00,
2013-05-25 06:18:00,29.0,28.3,30.34,SSW,198,0.0,0.0,97,0.00,,,0.00,Wunderground v.1.15,2013-05-25 10:18:00,
2013-05-25 06:23:00,29.1,28.4,30.34,SSW,198,0.0,0.0,97,0.00,,,0.00,Wunderground v.1.15,2013-05-25 10:23:00,
2013-05-25 06:30:00,29.2,28.5,30.34,SSW,199,0.0,0.0,97,0.00,,,0.00,Wunderground v.1.15,2013-05-25 10:30:00,
2013-05-25 06:35:00,29.4,28.7,30.34,SSW,198,0.0,0.0,97,0.00,,,0.00,Wunderground v.1.15,2013-05-25 10:35:00,
2013-05-25 06:41:00,29.8,29.1,30.34,SSW,199,0.0,0.0,97,0.00,,,0.00,Wunderground v.1.15,2013-05-25 10:41:00,
2013-05-25 06:46:00,30.1,29.4,30.34,SSW,199,0.0,0.0,97,0.00,,,0.00,Wunderground v.1.15,2013-05-25 10:46:00,
2013-05-25 06:51:00,30.7,30.0,30.33,SSE,148,0.0,0.0,97,0.00,,,0.00,Wunderground v.1.15,2013-05-25 10:51:00,
2013-05-25 06:57:00,31.1,30.3,30.34,SSE,149,0.0,0.0,97,0.00,,,0.00,Wunderground v.1.15,2013-05-25 10:57:00,
2013-05-25 07:03:00,31.4,30.6,30.34,SE,146,0.0,0.0,97,0.00,,,0.00,Wunderground v.1.15,2013-05-25 11:03:00,
2013-05-25 07:10:00,32.4,31.6,30.34,SE,142,0.0,0.0,97,0.00,,,0.00,Wunderground v.1.15,2013-05-25 11:10:00,
2013-05-25 07:15:00,32.9,32.1,30.34,SE,142,0.0,0.0,97,0.00,,,0.00,Wunderground v.1.15,2013-05-25 11:15:00,
2013-05-25 07:20:00,33.3,32.5,30.34,SE,142,0.0,0.0,97,0.00,,,0.00,Wunderground v.1.15,2013-05-25 11:20:00,
2013-05-25 07:25:00,33.8,33.0,30.34,SE,142,0.0,0.0,97,0.00,,,0.00,Wunderground v.1.15,2013-05-25 11:25:00,
2013-05-25 07:31:00,34.5,33.7,30.33,SE,142,0.0,0.0,97,0.00,,,0.00,Wunderground v.1.15,2013-05-25 11:31:00,
2013-05-25 07:36:00,35.1,34.3,30.34,SE,142,0.0,0.0,97,0.00,,,0.00,Wunderground v.1.15,2013-05-25 11:36:00,
2013-05-25 07:41:00,35.5,34.7,30.34,SE,142,0.0,0.0,97,0.00,,,0.00,Wunderground v.1.15,2013-05-25 11:41:00,
2013-05-25 07:48:00,36.2,35.4,30.34,SE,141,0.0,0.0,97,0.00,,,0.00,Wunderground v.1.15,2013-05-25 11:48:00,
2013-05-25 07:54:00,36.8,36.0,30.34,SE,142,0.0,0.0,97,0.00,,,0.00,Wunderground v.1.15,2013-05-25 11:54:00,
2013-05-25 08:00:00,37.4,36.6,30.34,SE,142,0.0,0.0,97,0.00,,,0.00,Wunderground v.1.15,2013-05-25 12:00:00,
2013-05-25 08:06:00,38.0,37.5,30.34,SE,141,0.0,0.0,98,0.00,,,0.00,Wunderground v.1.15,2013-05-25 12:06:00,
2013-05-25 08:11:00,38.9,38.4,30.34,SE,138,0.0,0.0,98,0.00,,,0.00,Wunderground v.1.15,2013-05-25 12:11:00,
2013-05-25 08:16:00,40.0,39.5,30.35,NE,49,0.0,0.0,98,0.00,,,0.00,Wunderground v.1.15,2013-05-25 12:16:00,
2013-05-25 08:22:00,40.7,40.2,30.34,WNW,301,0.0,2.0,98,0.00,,,0.00,Wunderground v.1.15,2013-05-25 12:22:00,
2013-05-25 08:28:00,41.6,41.1,30.34,NNW,343,1.0,2.0,98,0.00,,,0.00,Wunderground v.1.15,2013-05-25 12:28:00,
2013-05-25 08:34:00,42.3,41.5,30.35,NW,310,1.0,2.0,97,0.00,,,0.00,Wunderground v.1.15,2013-05-25 12:34:00,
2013-05-25 08:40:00,43.1,42.0,30.35,NW,315,2.0,3.0,96,0.00,,,0.00,Wunderground v.1.15,2013-05-25 12:40:00,
2013-05-25 08:45:00,43.7,41.2,30.35,WNW,293,3.0,3.0,91,0.00,,,0.00,Wunderground v.1.15,2013-05-25 12:45:00,
2013-05-25 08:51:00,44.3,40.7,30.35,WNW,301,3.0,5.0,87,0.00,,,0.00,Wunderground v.1.15,2013-05-25 12:51:00,
2013-05-25 08:56:00,44.9,41.0,30.36,WNW,297,3.0,5.0,86,0.00,,,0.00,Wunderground v.1.15,2013-05-25 12:56:00,
2013-05-25 09:02:00,45.5,40.6,30.36,WNW,293,3.0,7.0,83,0.00,,,0.00,Wunderground v.1.15,2013-05-25 13:02:00,
2013-05-25 09:07:00,45.8,40.0,30.36,NW,307,3.0,7.0,80,0.00,,,0.00,Wunderground v.1.15,2013-05-25 13:07:00,
2013-05-25 09:13:00,46.1,40.6,30.36,WNW,301,4.0,7.0,81,0.00,,,0.00,Wunderground v.1.15,2013-05-25 13:13:00,
2013-05-25 09:18:00,46.5,40.0,30.36,NNW,338,4.0,7.0,78,0.00,,,0.00,Wunderground v.1.15,2013-05-25 13:18:00,
2013-05-25 09:24:00,47.3,40.8,30.36,WNW,284,3.0,7.0,78,0.00,,,0.00,Wunderground v.1.15,2013-05-25 13:24:00,
2013-05-25 09:30:00,48.2,40.6,30.36,NNW,329,3.0,11.0,75,0.00,,,0.00,Wunderground v.1.15,2013-05-25 13:30:00,
2013-05-25 09:36:00,48.3,40.0,30.36,NNW,345,4.0,11.0,73,0.00,,,0.00,Wunderground v.1.15,2013-05-25 13:36:00,
2013-05-25 09:41:00,48.5,39.9,30.36,WNW,286,4.0,11.0,72,0.00,,,0.00,Wunderground v.1.15,2013-05-25 13:41:00,
2013-05-25 09:47:00,48.7,39.4,30.36,WNW,293,5.0,11.0,70,0.00,,,0.00,Wunderground v.1.15,2013-05-25 13:47:00,
2013-05-25 09:52:00,49.1,38.6,30.36,North,360,5.0,11.0,67,0.00,,,0.00,Wunderground v.1.15,2013-05-25 13:52:00,
2013-05-25 09:57:00,49.7,39.2,30.36,NW,309,4.0,11.0,67,0.00,,,0.00,Wunderground v.1.15,2013-05-25 13:57:00,
2013-05-25 10:02:00,50.1,38.4,30.36,WNW,289,4.0,13.0,64,0.00,,,0.00,Wunderground v.1.15,2013-05-25 14:02:00,
2013-05-25 10:08:00,50.3,37.4,30.36,WNW,297,4.0,13.0,61,0.00,,,0.00,Wunderground v.1.15,2013-05-25 14:08:00,
2013-05-25 10:13:00,50.3,37.8,30.36,WNW,290,5.0,11.0,62,0.00,,,0.00,Wunderground v.1.15,2013-05-25 14:13:00,
2013-05-25 10:19:00,50.1,37.2,30.37,WNW,284,7.0,13.0,61,0.00,,,0.00,Wunderground v.1.15,2013-05-25 14:19:00,
2013-05-25 10:24:00,50.3,37.4,30.37,ENE,73,5.0,13.0,61,0.00,,,0.00,Wunderground v.1.15,2013-05-25 14:24:00,
2013-05-25 10:29:00,50.6,38.1,30.37,NNW,329,5.0,13.0,62,0.00,,,0.00,Wunderground v.1.15,2013-05-25 14:29:00,
2013-05-25 10:35:00,51.3,37.9,30.37,NW,324,5.0,16.0,60,0.00,,,0.00,Wunderground v.1.15,2013-05-25 14:35:00,
2013-05-25 10:40:00,51.2,37.8,30.36,WNW,300,4.0,16.0,60,0.00,,,0.00,Wunderground v.1.15,2013-05-25 14:40:00,
2013-05-25 10:46:00,51.8,38.8,30.37,NNW,335,5.0,16.0,61,0.00,,,0.00,Wunderground v.1.15,2013-05-25 14:46:00,
2013-05-25 10:51:00,51.3,36.1,30.37,WNW,301,5.0,9.0,56,0.00,,,0.00,Wunderground v.1.15,2013-05-25 14:51:00,
2013-05-25 10:57:00,51.0,37.2,30.37,WNW,300,8.0,17.0,59,0.00,,,0.00,Wunderground v.1.15,2013-05-25 14:57:00,
2013-05-25 11:03:00,51.6,37.3,30.37,NNW,336,6.0,20.0,58,0.00,,,0.00,Wunderground v.1.15,2013-05-25 15:03:00,
2013-05-25 11:08:00,51.6,36.4,30.37,North,8,5.0,20.0,56,0.00,,,0.00,Wunderground v.1.15,2013-05-25 15:08:00,
2013-05-25 11:14:00,52.0,37.2,30.36,NNW,330,6.0,20.0,57,0.00,,,0.00,Wunderground v.1.15,2013-05-25 15:14:00,
2013-05-25 11:20:00,52.4,37.2,30.36,West,277,5.0,20.0,56,0.00,,,0.00,Wunderground v.1.15,2013-05-25 15:20:00,
2013-05-25 11:25:00,52.7,36.5,30.36,NNW,346,5.0,20.0,54,0.00,,,0.00,Wunderground v.1.15,2013-05-25 15:25:00,
2013-05-25 11:32:00,52.3,35.7,30.36,NW,326,6.0,15.0,53,0.00,,,0.00,Wunderground v.1.15,2013-05-25 15:32:00,
2013-05-25 11:37:00,52.7,37.4,30.36,NW,304,6.0,15.0,56,0.00,,,0.00,Wunderground v.1.15,2013-05-25 15:37:00,
2013-05-25 11:42:00,52.8,37.1,30.36,NE,53,5.0,15.0,55,0.00,,,0.00,Wunderground v.1.15,2013-05-25 15:42:00,
2013-05-25 11:48:00,53.0,38.2,30.36,WNW,295,6.0,15.0,57,0.00,,,0.00,Wunderground v.1.15,2013-05-25 15:48:00,
2013-05-25 11:53:00,52.9,37.2,30.36,NW,308,6.0,15.0,55,0.00,,,0.00,Wunderground v.1.15,2013-05-25 15:53:00,
2013-05-25 12:01:00,53.0,35.8,30.35,WNW,283,5.0,14.0,52,0.00,,,0.00,Wunderground v.1.15,2013-05-25 16:01:00,
2013-05-25 12:06:00,53.1,37.3,30.35,NW,311,6.0,14.0,55,0.00,,,0.00,Wunderground v.1.15,2013-05-25 16:06:00,
2013-05-25 12:11:00,53.4,37.2,30.35,NNW,346,5.0,14.0,54,0.00,,,0.00,Wunderground v.1.15,2013-05-25 16:11:00,
2013-05-25 12:17:00,54.0,38.2,30.35,NW,312,4.0,14.0,55,0.00,,,0.00,Wunderground v.1.15,2013-05-25 16:17:00,
2013-05-25 12:23:00,54.1,37.3,30.35,North,1,5.0,14.0,53,0.00,,,0.00,Wunderground v.1.15,2013-05-25 16:23:00,
2013-05-25 12:28:00,53.6,35.4,30.35,WNW,294,6.0,14.0,50,0.00,,,0.00,Wunderground v.1.15,2013-05-25 16:28:00,
2013-05-25 12:33:00,53.7,35.5,30.35,NE,56,6.0,14.0,50,0.00,,,0.00,Wunderground v.1.15,2013-05-25 16:33:00,
2013-05-25 12:40:00,54.2,36.9,30.35,NW,316,4.0,14.0,52,0.00,,,0.00,Wunderground v.1.15,2013-05-25 16:40:00,
2013-05-25 12:45:00,54.2,36.5,30.35,NW,316,5.0,14.0,51,0.00,,,0.00,Wunderground v.1.15,2013-05-25 16:45:00,
2013-05-25 12:51:00,53.9,36.2,30.34,NNW,336,5.0,14.0,51,0.00,,,0.00,Wunderground v.1.15,2013-05-25 16:51:00,
2013-05-25 12:57:00,54.3,36.5,30.35,West,280,6.0,14.0,51,0.00,,,0.00,Wunderground v.1.15,2013-05-25 16:57:00,
2013-05-25 13:02:00,54.3,36.5,30.35,NW,315,6.0,17.0,51,0.00,,,0.00,Wunderground v.1.15,2013-05-25 17:02:00,
2013-05-25 13:07:00,54.3,36.0,30.35,NE,53,6.0,17.0,50,0.00,,,0.00,Wunderground v.1.15,2013-05-25 17:07:00,
2013-05-25 13:13:00,54.3,36.0,30.35,WNW,296,7.0,17.0,50,0.00,,,0.00,Wunderground v.1.15,2013-05-25 17:13:00,
2013-05-25 13:20:00,54.0,35.3,30.35,NW,307,7.0,17.0,49,0.00,,,0.00,Wunderground v.1.15,2013-05-25 17:20:00,
2013-05-25 13:25:00,54.3,36.5,30.35,NW,315,6.0,17.0,51,0.00,,,0.00,Wunderground v.1.15,2013-05-25 17:25:00,
2013-05-25 13:31:00,54.6,35.3,30.34,WSW,248,5.0,15.0,48,0.00,,,0.00,Wunderground v.1.15,2013-05-25 17:31:00,
2013-05-25 13:36:00,54.6,35.8,30.34,NW,319,6.0,15.0,49,0.00,,,0.00,Wunderground v.1.15,2013-05-25 17:36:00,
2013-05-25 13:41:00,54.7,35.9,30.34,NE,37,5.0,15.0,49,0.00,,,0.00,Wunderground v.1.15,2013-05-25 17:41:00,
2013-05-25 13:46:00,54.8,34.9,30.34,WNW,300,6.0,15.0,47,0.00,,,0.00,Wunderground v.1.15,2013-05-25 17:46:00,
2013-05-25 13:53:00,54.8,35.5,30.34,North,1,6.0,15.0,48,0.00,,,0.00,Wunderground v.1.15,2013-05-25 17:53:00,
2013-05-25 13:58:00,55.0,38.6,30.34,WNW,301,5.0,15.0,54,0.00,,,0.00,Wunderground v.1.15,2013-05-25 17:58:00,
2013-05-25 14:04:00,55.4,36.5,30.34,NW,308,5.0,17.0,49,0.00,,,0.00,Wunderground v.1.15,2013-05-25 18:04:00,
2013-05-25 14:10:00,54.4,35.6,30.33,WNW,294,7.0,7.0,49,0.00,,,0.00,Wunderground v.1.15,2013-05-25 18:10:00,
2013-05-25 14:16:00,54.9,37.6,30.34,WNW,290,6.0,17.0,52,0.00,,,0.00,Wunderground v.1.15,2013-05-25 18:16:00,
2013-05-25 14:21:00,54.9,37.1,30.33,WNW,288,6.0,9.0,51,0.00,,,0.00,Wunderground v.1.15,2013-05-25 18:21:00,
2013-05-25 14:27:00,55.7,36.3,30.33,WNW,297,6.0,17.0,48,0.00,,,0.00,Wunderground v.1.15,2013-05-25 18:27:00,
2013-05-25 14:32:00,55.3,37.5,30.33,NNE,15,6.0,18.0,51,0.00,,,0.00,Wunderground v.1.15,2013-05-25 18:32:00,
2013-05-25 14:38:00,55.6,37.2,30.33,WNW,301,6.0,18.0,50,0.00,,,0.00,Wunderground v.1.15,2013-05-25 18:38:00,
2013-05-25 14:44:00,55.3,37.0,30.33,NW,315,7.0,18.0,50,0.00,,,0.00,Wunderground v.1.15,2013-05-25 18:44:00,
2013-05-25 14:50:00,55.8,37.9,30.32,WNW,300,6.0,18.0,51,0.00,,,0.00,Wunderground v.1.15,2013-05-25 18:50:00,
2013-05-25 14:55:00,55.7,38.3,30.32,NNW,342,5.0,18.0,52,0.00,,,0.00,Wunderground v.1.15,2013-05-25 18:55:00,
2013-05-25 15:00:00,55.9,36.5,30.32,NNE,30,6.0,18.0,48,0.00,,,0.00,Wunderground v.1.15,2013-05-25 19:00:00,
2013-05-25 15:06:00,55.8,36.4,30.33,SE,129,6.0,18.0,48,0.00,,,0.00,Wunderground v.1.15,2013-05-25 19:06:00,
2013-05-25 15:11:00,55.9,38.0,30.32,WNW,290,6.0,18.0,51,0.00,,,0.00,Wunderground v.1.15,2013-05-25 19:11:00,
2013-05-25 15:17:00,56.5,38.1,30.32,NNW,332,6.0,18.0,50,0.00,,,0.00,Wunderground v.1.15,2013-05-25 19:17:00,
2013-05-25 15:22:00,56.7,37.2,30.32,WNW,296,6.0,18.0,48,0.00,,,0.00,Wunderground v.1.15,2013-05-25 19:22:00,
2013-05-25 15:27:00,56.6,39.7,30.32,WNW,287,6.0,18.0,53,0.00,,,0.00,Wunderground v.1.15,2013-05-25 19:27:00,
2013-05-25 15:33:00,56.8,37.8,30.32,WNW,301,6.0,16.0,49,0.00,,,0.00,Wunderground v.1.15,2013-05-25 19:33:00,
2013-05-25 15:39:00,56.6,37.6,30.32,WNW,294,7.0,16.0,49,0.00,,,0.00,Wunderground v.1.15,2013-05-25 19:39:00,
2013-05-25 15:45:00,57.0,39.0,30.32,NNW,340,7.0,16.0,51,0.00,,,0.00,Wunderground v.1.15,2013-05-25 19:45:00,
2013-05-25 15:51:00,56.7,36.1,30.32,North,358,6.0,16.0,46,0.00,,,0.00,Wunderground v.1.15,2013-05-25 19:51:00,
2013-05-25 15:56:00,56.5,37.0,30.32,NW,311,7.0,16.0,48,0.00,,,0.00,Wunderground v.1.15,2013-05-25 19:56:00,
2013-05-25 16:01:00,56.5,37.0,30.32,WNW,294,7.0,18.0,48,0.00,,,0.00,Wunderground v.1.15,2013-05-25 20:01:00,
2013-05-25 16:07:00,56.6,38.2,30.31,WNW,284,7.0,18.0,50,0.00,,,0.00,Wunderground v.1.15,2013-05-25 20:07:00,
2013-05-25 16:12:00,57.0,37.0,30.31,North,354,6.0,7.0,47,0.00,,,0.00,Wunderground v.1.15,2013-05-25 20:12:00,
2013-05-25 16:18:00,56.4,36.4,30.31,North,9,8.0,18.0,47,0.00,,,0.00,Wunderground v.1.15,2013-05-25 20:18:00,
2013-05-25 16:23:00,56.8,36.8,30.31,North,355,8.0,18.0,47,0.00,,,0.00,Wunderground v.1.15,2013-05-25 20:23:00,
2013-05-25 16:28:00,57.2,38.2,30.31,WNW,290,6.0,18.0,49,0.00,,,0.00,Wunderground v.1.15,2013-05-25 20:28:00,
2013-05-25 16:34:00,57.7,37.6,30.30,NW,323,5.0,17.0,47,0.00,,,0.00,Wunderground v.1.15,2013-05-25 20:34:00,
2013-05-25 16:40:00,57.6,37.0,30.30,NE,51,5.0,17.0,46,0.00,,,0.00,Wunderground v.1.15,2013-05-25 20:40:00,
2013-05-25 16:45:00,57.8,36.0,30.30,WNW,299,6.0,17.0,44,0.00,,,0.00,Wunderground v.1.15,2013-05-25 20:45:00,
2013-05-25 16:50:00,58.0,37.3,30.30,West,268,6.0,6.0,46,0.00,,,0.00,Wunderground v.1.15,2013-05-25 20:50:00,
2013-05-25 16:57:00,57.5,36.3,30.30,North,349,6.0,17.0,45,0.00,,,0.00,Wunderground v.1.15,2013-05-25 20:57:00,
2013-05-25 17:04:00,57.6,38.0,30.30,WNW,300,5.0,17.0,48,0.00,,,0.00,Wunderground v.1.15,2013-05-25 21:04:00,
2013-05-25 17:10:00,57.2,36.6,30.30,WNW,293,5.0,17.0,46,0.00,,,0.00,Wunderground v.1.15,2013-05-25 21:10:00,
2013-05-25 17:16:00,56.9,37.4,30.30,NW,322,5.0,17.0,48,0.00,,,0.00,Wunderground v.1.15,2013-05-25 21:16:00,
2013-05-25 17:22:00,57.7,38.7,30.30,NNE,22,4.0,8.0,49,0.00,,,0.00,Wunderground v.1.15,2013-05-25 21:22:00,
2013-05-25 17:27:00,57.7,38.7,30.30,NNW,335,5.0,17.0,49,0.00,,,0.00,Wunderground v.1.15,2013-05-25 21:27:00,
2013-05-25 17:33:00,57.8,37.1,30.30,NW,324,5.0,13.0,46,0.00,,,0.00,Wunderground v.1.15,2013-05-25 21:33:00,
2013-05-25 17:38:00,57.6,37.0,30.30,WNW,294,7.0,16.0,46,0.00,,,0.00,Wunderground v.1.15,2013-05-25 21:38:00,
2013-05-25 17:44:00,58.1,36.9,30.30,NW,317,6.0,13.0,45,0.00,,,0.00,Wunderground v.1.15,2013-05-25 21:44:00,
2013-05-25 17:50:00,57.7,37.0,30.30,WNW,302,6.0,6.0,46,0.00,,,0.00,Wunderground v.1.15,2013-05-25 21:50:00,
2013-05-25 17:55:00,57.8,36.6,30.30,NW,322,6.0,13.0,45,0.00,,,0.00,Wunderground v.1.15,2013-05-25 21:55:00,
2013-05-25 18:01:00,57.5,35.7,30.29,NNW,344,6.0,6.0,44,0.00,,,0.00,Wunderground v.1.15,2013-05-25 22:01:00,
2013-05-25 18:07:00,58.1,36.3,30.29,NW,315,5.0,17.0,44,0.00,,,0.00,Wunderground v.1.15,2013-05-25 22:07:00,
2013-05-25 18:12:00,57.7,36.5,30.29,WNW,283,4.0,17.0,45,0.00,,,0.00,Wunderground v.1.15,2013-05-25 22:12:00,
2013-05-25 18:18:00,56.9,35.2,30.28,NNE,22,6.0,17.0,44,0.00,,,0.00,Wunderground v.1.15,2013-05-25 22:18:00,
2013-05-25 18:24:00,56.4,34.7,30.28,West,276,7.0,17.0,44,0.00,,,0.00,Wunderground v.1.15,2013-05-25 22:24:00,
2013-05-25 18:30:00,56.4,34.2,30.28,NE,41,6.0,17.0,43,0.00,,,0.00,Wunderground v.1.15,2013-05-25 22:30:00,
2013-05-25 18:35:00,56.5,34.8,30.28,ENE,70,5.0,16.0,44,0.00,,,0.00,Wunderground v.1.15,2013-05-25 22:35:00,
2013-05-25 18:40:00,56.3,34.1,30.28,NNW,333,6.0,6.0,43,0.00,,,0.00,Wunderground v.1.15,2013-05-25 22:40:00,
2013-05-25 18:46:00,56.5,34.8,30.28,NW,317,6.0,16.0,44,0.00,,,0.00,Wunderground v.1.15,2013-05-25 22:46:00,
2013-05-25 18:51:00,56.2,34.0,30.28,West,263,7.0,16.0,43,0.00,,,0.00,Wunderground v.1.15,2013-05-25 22:51:00,
2013-05-25 18:57:00,56.1,35.0,30.28,NE,46,6.0,16.0,45,0.00,,,0.00,Wunderground v.1.15,2013-05-25 22:57:00,
2013-05-25 19:03:00,56.3,33.5,30.28,NW,309,5.0,16.0,42,0.00,,,0.00,Wunderground v.1.15,2013-05-25 23:03:00,
2013-05-25 19:10:00,56.0,32.6,30.28,NNW,334,4.0,16.0,41,0.00,,,0.00,Wunderground v.1.15,2013-05-25 23:10:00,
2013-05-25 19:16:00,55.6,34.0,30.28,NNW,332,4.0,16.0,44,0.00,,,0.00,Wunderground v.1.15,2013-05-25 23:16:00,
2013-05-25 19:21:00,55.1,34.1,30.28,NNW,342,4.0,16.0,45,0.00,,,0.00,Wunderground v.1.15,2013-05-25 23:21:00,
2013-05-25 19:27:00,54.6,34.8,30.28,NW,305,3.0,16.0,47,0.00,,,0.00,Wunderground v.1.15,2013-05-25 23:27:00,
2013-05-25 19:32:00,54.8,33.3,30.28,NNE,22,4.0,11.0,44,0.00,,,0.00,Wunderground v.1.15,2013-05-25 23:32:00,
2013-05-25 19:38:00,54.9,32.8,30.28,NNW,340,4.0,11.0,43,0.00,,,0.00,Wunderground v.1.15,2013-05-25 23:38:00,
2013-05-25 19:43:00,55.1,33.0,30.28,NNE,20,3.0,11.0,43,0.00,,,0.00,Wunderground v.1.15,2013-05-25 23:43:00,
2013-05-25 19:48:00,55.3,33.2,30.28,North,351,3.0,11.0,43,0.00,,,0.00,Wunderground v.1.15,2013-05-25 23:48:00,
2013-05-25 19:54:00,55.8,33.6,30.28,NNE,22,2.0,11.0,43,0.00,,,0.00,Wunderground v.1.15,2013-05-25 23:54:00,
2013-05-25 20:00:00,55.6,33.4,30.28,NE,53,2.0,10.0,43,0.00,,,0.00,Wunderground v.1.15,2013-05-26 00:00:00,
2013-05-25 20:06:00,55.3,33.2,30.28,NE,39,3.0,10.0,43,0.00,,,0.00,Wunderground v.1.15,2013-05-26 00:06:00,
2013-05-25 20:12:00,54.5,32.4,30.28,NNE,25,3.0,10.0,43,0.00,,,0.00,Wunderground v.1.15,2013-05-26 00:12:00,
2013-05-25 20:17:00,53.9,33.0,30.28,NW,309,3.0,10.0,45,0.00,,,0.00,Wunderground v.1.15,2013-05-26 00:17:00,
2013-05-25 20:23:00,53.2,32.4,30.28,NNW,327,2.0,10.0,45,0.00,,,0.00,Wunderground v.1.15,2013-05-26 00:23:00,
2013-05-25 20:28:00,52.6,32.4,30.28,NE,37,2.0,10.0,46,0.00,,,0.00,Wunderground v.1.15,2013-05-26 00:28:00,
2013-05-25 20:33:00,52.0,32.4,30.28,WNW,303,2.0,10.0,47,0.00,,,0.00,Wunderground v.1.15,2013-05-26 00:33:00,
2013-05-25 20:40:00,51.6,32.0,30.27,NNE,13,2.0,8.0,47,0.00,,,0.00,Wunderground v.1.15,2013-05-26 00:40:00,
2013-05-25 20:46:00,51.2,31.6,30.27,NE,46,3.0,8.0,47,0.00,,,0.00,Wunderground v.1.15,2013-05-26 00:46:00,
2013-05-25 20:52:00,50.8,31.3,30.27,North,349,2.0,8.0,47,0.00,,,0.00,Wunderground v.1.15,2013-05-26 00:52:00,
2013-05-25 21:00:00,50.3,31.3,30.27,NNW,328,2.0,2.0,48,0.00,,,0.00,Wunderground v.1.15,2013-05-26 01:00:00,
2013-05-25 21:06:00,49.8,31.9,30.27,NW,319,1.0,7.0,50,0.00,,,0.00,Wunderground v.1.15,2013-05-26 01:06:00,
2013-05-25 21:11:00,49.3,31.9,30.27,NNW,328,0.0,7.0,51,0.00,,,0.00,Wunderground v.1.15,2013-05-26 01:11:00,
2013-05-25 21:17:00,48.7,32.3,30.27,NNW,327,0.0,7.0,53,0.00,,,0.00,Wunderground v.1.15,2013-05-26 01:17:00,
2013-05-25 21:22:00,48.1,31.8,30.27,NNW,327,0.0,7.0,53,0.00,,,0.00,Wunderground v.1.15,2013-05-26 01:22:00,
2013-05-25 21:27:00,47.6,31.8,30.26,NNW,327,0.0,7.0,54,0.00,,,0.00,Wunderground v.1.15,2013-05-26 01:27:00,
2013-05-25 21:34:00,46.6,32.6,30.27,NNW,327,0.0,5.0,58,0.00,,,0.00,Wunderground v.1.15,2013-05-26 01:34:00,
2013-05-25 21:39:00,46.1,33.8,30.27,NNW,328,0.0,5.0,62,0.00,,,0.00,Wunderground v.1.15,2013-05-26 01:39:00,
2013-05-25 21:45:00,45.6,33.7,30.26,NNW,327,0.0,5.0,63,0.00,,,0.00,Wunderground v.1.15,2013-05-26 01:45:00,
2013-05-25 21:50:00,45.0,33.9,30.27,NNW,328,0.0,5.0,65,0.00,,,0.00,Wunderground v.1.15,2013-05-26 01:50:00,
2013-05-25 21:56:00,44.4,33.7,30.27,NNW,327,0.0,5.0,66,0.00,,,0.00,Wunderground v.1.15,2013-05-26 01:56:00,
2013-05-25 22:01:00,44.0,34.1,30.27,NNW,328,0.0,1.0,68,0.00,,,0.00,Wunderground v.1.15,2013-05-26 02:01:00,
2013-05-25 22:06:00,43.9,34.0,30.27,NNW,327,0.0,1.0,68,0.00,,,0.00,Wunderground v.1.15,2013-05-26 02:06:00,
2013-05-25 22:12:00,43.6,34.1,30.28,NNW,328,0.0,1.0,69,0.00,,,0.00,Wunderground v.1.15,2013-05-26 02:12:00,
2013-05-25 22:17:00,43.1,34.0,30.28,NNW,327,0.0,1.0,70,0.00,,,0.00,Wunderground v.1.15,2013-05-26 02:17:00,
2013-05-25 22:22:00,42.6,34.2,30.28,NNW,328,0.0,1.0,72,0.00,,,0.00,Wunderground v.1.15,2013-05-26 02:22:00,
2013-05-25 22:27:00,41.9,33.9,30.28,NNW,328,0.0,1.0,73,0.00,,,0.00,Wunderground v.1.15,2013-05-26 02:27:00,
2013-05-25 22:33:00,41.3,34.0,30.28,NNW,327,0.0,1.0,75,0.00,,,0.00,Wunderground v.1.15,2013-05-26 02:33:00,
2013-05-25 22:38:00,40.8,33.8,30.28,NNW,327,0.0,1.0,76,0.00,,,0.00,Wunderground v.1.15,2013-05-26 02:38:00,
2013-05-25 22:45:00,40.3,33.7,30.28,NNW,327,0.0,1.0,77,0.00,,,0.00,Wunderground v.1.15,2013-05-26 02:45:00,
2013-05-25 22:50:00,40.0,33.7,30.28,NNW,328,0.0,1.0,78,0.00,,,0.00,Wunderground v.1.15,2013-05-26 02:50:00,
2013-05-25 22:55:00,39.6,33.3,30.27,NNW,328,0.0,1.0,78,0.00,,,0.00,Wunderground v.1.15,2013-05-26 02:55:00,
2013-05-25 23:01:00,39.1,33.1,30.27,NNW,328,0.0,0.0,79,0.00,,,0.00,Wunderground v.1.15,2013-05-26 03:01:00,
2013-05-25 23:06:00,39.0,33.7,30.27,NNW,328,0.0,0.0,81,0.00,,,0.00,Wunderground v.1.15,2013-05-26 03:06:00,
2013-05-25 23:11:00,38.6,33.3,30.27,NNW,327,0.0,0.0,81,0.00,,,0.00,Wunderground v.1.15,2013-05-26 03:11:00,
2013-05-25 23:17:00,38.2,33.5,30.27,NNW,327,0.0,0.0,83,0.00,,,0.00,Wunderground v.1.15,2013-05-26 03:17:00,
2013-05-25 23:22:00,38.1,34.0,30.27,NNW,327,0.0,0.0,85,0.00,,,0.00,Wunderground v.1.15,2013-05-26 03:22:00,
2013-05-25 23:28:00,37.7,33.9,30.27,NNW,328,0.0,0.0,86,0.00,,,0.00,Wunderground v.1.15,2013-05-26 03:28:00,
2013-05-25 23:34:00,37.9,34.4,30.27,NNW,328,0.0,0.0,87,0.00,,,0.00,Wunderground v.1.15,2013-05-26 03:34:00,
2013-05-25 23:40:00,37.7,34.2,30.27,NNW,328,0.0,0.0,87,0.00,,,0.00,Wunderground v.1.15,2013-05-26 03:40:00,
2013-05-25 23:45:00,37.6,34.4,30.27,NNW,327,0.0,1.0,88,0.00,,,0.00,Wunderground v.1.15,2013-05-26 03:45:00,
2013-05-25 23:51:00,37.8,34.6,30.27,NNW,328,0.0,0.0,88,0.00,,,0.00,Wunderground v.1.15,2013-05-26 03:51:00,
2013-05-25 23:57:00,38.0,34.8,30.28,NNW,327,0.0,0.0,88,0.00,,,0.00,Wunderground v.1.15,2013-05-26 03:57:00,